Birmingham, AL

9:12 AM CDT on July 28, 2017 (GMT -0500)
Birmingham International

Weather History for KBHM - April, 2012

Change the Weather History Date:

Monday, April 30, 2012

  Actual Average Record
Temperature  
Mean Temperature 75 °F 66 °F  
Max Temperature 89 °F 78 °F 91 °F (1942)
Min Temperature 60 °F 55 °F 36 °F (1969)
Degree Days  
Heating Degree Days 0 2  
Month to date heating degree days 64 140  
Since 1 July heating degree days 1918 2651  
Cooling Degree Days 10 3  
Month to date cooling degree days 102 62  
Year to date cooling degree days 228 84  
Growing Degree Days 24 (Base 50)    
Moisture  
Dew Point 58 °F    
Average Humidity 61    
Maximum Humidity 90    
Minimum Humidity 31    
Precipitation  
Precipitation 0.00 in 0.14 in 2.13 in (1929)
Month to date precipitation 1.26 4.38  
Year to date precipitation 14.84 18.98  
Snow  
Snow 0.00 in 0.00 in - ()
Month to date snowfall 0.0 0.2  
Since 1 July snowfall T 1.6  
Snow Depth 0.00 in    
Sea Level Pressure  
Sea Level Pressure 30.10 in    
Wind  
Wind Speed 3 mph (WSW)    
Max Wind Speed 14 mph    
Max Gust Speed 21 mph    
Visibility 10 miles    
Events      
T = Trace of Precipitation, MM = Missing Value Source: NWS Daily Summary

Daily Weather History Graph

Daily Weather History Graph

Search for Another Location

Airport or City:

Trip Planner

Search our weather history database for the weather conditions in past years. The results will help you decide how hot, cold, wet, or windy it might be!

Date:

Astronomy

Apr. 30, 2012 Rise Set
Actual Time 5:59 AM CDT 7:29 PM CDT
Civil Twilight 5:32 AM CDT 7:56 PM CDT
Nautical Twilight 5:00 AM CDT 8:28 PM CDT
Astronomical Twilight 4:27 AM CDT 9:01 PM CDT
Moon 1:43 PM CDT (4/30) 2:04 AM CDT (4/30)
Length of Visible Light 14h 23m
Length of Day
13h 30m
Waxing Gibbous, 64% of the Moon is Illuminated
Apr 30
Waxing Gibbous
May 5
Full
May 12
Last Quarter
May 20
New
May 28
First Quarter

Hourly Weather History & Observations

Time (CDT) Temp. Heat Index Dew Point Humidity Pressure Visibility Wind Dir Wind Speed Gust Speed Precip Events Conditions
12:53 AM 66.0 °F - 60.1 °F 81% 30.11 in 10.0 mi Calm Calm - N/A   Clear
1:53 AM 64.0 °F - 59.0 °F 84% 30.09 in 10.0 mi Calm Calm - N/A   Clear
2:53 AM 63.0 °F - 57.9 °F 84% 30.07 in 10.0 mi Calm Calm - N/A   Clear
3:53 AM 62.1 °F - 57.9 °F 86% 30.09 in 10.0 mi Calm Calm - N/A   Clear
4:53 AM 61.0 °F - 57.9 °F 90% 30.10 in 10.0 mi Calm Calm - N/A   Clear
5:53 AM 60.1 °F - 57.0 °F 90% 30.13 in 10.0 mi Calm Calm - N/A   Clear
6:53 AM 64.0 °F - 57.9 °F 80% 30.15 in 10.0 mi Calm Calm - N/A   Clear
7:53 AM 70.0 °F - 59.0 °F 68% 30.16 in 10.0 mi Calm Calm - N/A   Clear
8:53 AM 75.9 °F - 57.9 °F 54% 30.16 in 10.0 mi SW 3.5 mph - N/A   Clear
9:53 AM 80.1 °F 80.9 °F 60.1 °F 50% 30.16 in 10.0 mi NW 3.5 mph - N/A   Clear
10:53 AM 82.0 °F 83.0 °F 62.1 °F 51% 30.16 in 10.0 mi Calm Calm - N/A   Clear
11:53 AM 84.0 °F 83.5 °F 57.9 °F 41% 30.14 in 10.0 mi WSW 4.6 mph - N/A   Clear
12:53 PM 88.0 °F 86.5 °F 55.9 °F 34% 30.12 in 10.0 mi SW 9.2 mph 16.1 mph N/A   Scattered Clouds
1:53 PM 87.1 °F 85.7 °F 55.9 °F 35% 30.10 in 10.0 mi WSW 9.2 mph - N/A   Partly Cloudy
2:53 PM 87.1 °F 85.7 °F 55.9 °F 35% 30.09 in 10.0 mi West 9.2 mph - N/A   Scattered Clouds
3:53 PM 88.0 °F 86.5 °F 55.9 °F 34% 30.06 in 10.0 mi WSW 5.8 mph - N/A   Scattered Clouds
4:53 PM 88.0 °F 86.1 °F 55.0 °F 32% 30.06 in 10.0 mi SSW 9.2 mph - N/A   Scattered Clouds
5:53 PM 87.1 °F 85.1 °F 54.0 °F 32% 30.06 in 10.0 mi West 8.1 mph - N/A   Partly Cloudy
6:53 PM 84.9 °F 83.9 °F 57.0 °F 38% 30.06 in 10.0 mi South 6.9 mph - N/A   Partly Cloudy
7:53 PM 81.0 °F 81.1 °F 57.9 °F 45% 30.07 in 10.0 mi Calm Calm - N/A   Clear
8:53 PM 75.0 °F - 60.1 °F 60% 30.07 in 10.0 mi Calm Calm - N/A   Clear
9:53 PM 73.0 °F - 61.0 °F 66% 30.09 in 10.0 mi Calm Calm - N/A   Clear
10:53 PM 71.1 °F - 61.0 °F 70% 30.08 in 10.0 mi Calm Calm - N/A   Clear
11:53 PM 68.0 °F - 61.0 °F 78% 30.06 in 10.0 mi Calm Calm - N/A   Clear